GW5532 Weather Reports


time (UTC)temp
F
wind
direction
speed
knots
gust
knots
rain 1hr
in
rain 24hr
in
rain mn
in
humidity
%
barometer
mb
20260906204007 101 246 1.7 5.2 0.00 0.00 0.00 35 1012.5
20260906203510 101 205 0.9 5.2 0.00 0.00 0.00 36 1012.7
20260906203028 100 98 1.7 3.5 0.00 0.00 0.00 37 1012.8
20260906202509 99 112 0.9 2.6 0.00 0.00 0.00 34 1012.9
20260906202013 101 133 0.9 6.1 0.00 0.00 0.00 33 1012.9
20260906201538 102 177 2.6 7.8 0.00 0.00 0.00 33 1013.1
20260906201015 102 205 3.5 7.8 0.00 0.00 0.00 32 1012.9
20260906200517 103 268 1.7 7.8 0.00 0.00 0.00 34 1012.9
20260906200005 103 277 1.7 7.0 0.00 0.00 0.00 34 1013.0
20260906195503 102 139 2.6 7.0 0.00 0.00 0.00 33 1013.1
20260906195006 102 202 2.6 7.8 0.00 0.00 0.00 34 1013.2
20260906194512 102 265 3.5 7.8 0.00 0.00 0.00 33 1013.4
20260906194007 101 193 1.7 4.3 0.00 0.00 0.00 35 1013.4
20260906193510 101 141 1.7 6.1 0.00 0.00 0.00 35 1013.4
20260906193020 102 132 2.6 7.8 0.00 0.00 0.00 33 1013.6
20260906192511 102 47 3.5 7.8 0.00 0.00 0.00 34 1013.6
20260906192019 102 265 2.6 7.0 0.00 0.00 0.00 34 1013.6
20260906191525 102 88 2.6 6.1 0.00 0.00 0.00 35 1013.7
20260906191020 100 236 1.7 5.2 0.00 0.00 0.00 36 1013.7
20260906190504 100 334 0.9 7.8 0.00 0.00 0.00 36 1013.8
20260906190006 101 261 0.9 8.7 0.00 0.00 0.00 35 1013.9
20260906185508 100 236 3.5 9.6 0.00 0.00 0.00 35 1014.0
20260906185008 101 235 2.6 9.6 0.00 0.00 0.00 36 1014.1
20260906184516 101 96 2.6 7.8 0.00 0.00 0.00 38 1014.1
20260906184011 99 225 1.7 7.8 0.00 0.00 0.00 38 1014.1
20260906183513 99 173 0.9 7.8 0.00 0.00 0.00 38 1014.2
20260906183030 100 121 1.7 9.6 0.00 0.00 0.00 38 1014.3
20260906182514 100 188 1.7 9.6 0.00 0.00 0.00 36 1014.4
20260906182017 101 80 2.6 7.0 0.00 0.00 0.00 37 1014.4
20260906181539 99 177 0.9 4.3 0.00 0.00 0.00 39 1014.5
20260906181006 100 148 0.9 9.6 0.00 0.00 0.00 37 1014.5
20260906180504 100 153 2.6 9.6 0.00 0.00 0.00 35 1014.7
20260906180016 99 174 1.7 7.8 0.00 0.00 0.00 40 1014.6
20260906175510 99 268 0.9 7.8 0.00 0.00 0.00 39 1014.7
20260906175009 99 304 0.9 7.8 0.00 0.00 0.00 40 1014.9
20260906174518 98 93 1.7 7.0 0.00 0.00 0.00 42 1014.9
20260906174011 97 185 1.7 4.3 0.00 0.00 0.00 41 1014.9
20260906173515 99 273 0.0 4.3 0.00 0.00 0.00 43 1015.1
20260906173026 96 348 0.9 6.1 0.00 0.00 0.00 43 1015.3
20260906172514 98 218 0.9 6.1 0.00 0.00 0.00 42 1015.5
20260906172014 98 248 0.9 6.1 0.00 0.00 0.00 40 1015.6
20260906171531 99 178 0.9 6.1 0.00 0.00 0.00 42 1015.6
20260906171006 97 86 1.7 4.3 0.00 0.00 0.00 42 1015.7
20260906170506 96 69 0.9 4.3 0.00 0.00 0.00 42 1015.7
20260906170012 97 101 1.7 6.1 0.00 0.00 0.00 42 1015.8
20260906165510 96 103 2.6 5.2 0.00 0.00 0.00 43 1015.7
20260906165016 96 302 2.6 4.3 0.00 0.00 0.00 43 1015.7
20260906164522 96 202 0.9 3.5 0.00 0.00 0.00 44 1015.8
20260906164014 97 348 1.7 3.5 0.00 0.00 0.00 43 1015.8
20260906163513 96 317 1.7 3.5 0.00 0.00 0.00 44 1015.8
20260906163028 97 74 0.9 4.3 0.00 0.00 0.00 43 1015.8
20260906162517 95 196 0.9 4.3 0.00 0.00 0.00 45 1015.8
20260906162015 95 241 1.7 4.3 0.00 0.00 0.00 45 1015.9
20260906161511 94 167 0.9 2.6 0.00 0.00 0.00 47 1015.9
20260906161008 94 178 1.7 3.5 0.00 0.00 0.00 47 1015.9
20260906160509 93 206 1.7 3.5 0.00 0.00 0.00 48 1015.9
20260906160036 92 202 0.9 2.6 0.00 0.00 0.00 48 1016.0
20260906155513 93 279 0.0 3.5 0.00 0.00 0.00 48 1016.0
20260906155011 92 199 1.7 5.2 0.00 0.00 0.00 48 1016.1
20260906154526 93 263 0.0 5.2 0.00 0.00 0.00 49 1015.9
20260906154014 92 251 0.9 3.5 0.00 0.00 0.00 50 1015.9
20260906153517 92 259 0.9 2.6 0.00 0.00 0.00 51 1015.9
20260906153042 91 161 0.9 2.6 0.00 0.00 0.00 52 1015.8
20260906152519 90 250 0.9 3.5 0.00 0.00 0.00 53 1015.8
20260906152006 90 254 0.0 3.5 0.00 0.00 0.00 54 1015.7
20260906151510 89 255 0.9 3.5 0.00 0.00 0.00 55 1015.7
20260906151011 89 255 0.9 2.6 0.00 0.00 0.00 56 1015.7
20260906150510 88 205 0.0 2.6 0.00 0.00 0.00 57 1015.7
20260906150020 87 236 0.9 2.6 0.00 0.00 0.00 58 1015.7
20260906145511 86 268 0.9 2.6 0.00 0.00 0.00 59 1015.7
20260906145015 86 252 1.7 2.6 0.00 0.00 0.00 59 1015.7
20260906144533 86 231 0.9 2.6 0.00 0.00 0.00 59 1015.7
20260906144018 85 229 0.9 2.6 0.00 0.00 0.00 59 1015.7
20260906143516 85 238 0.9 3.5 0.00 0.00 0.00 60 1015.7
20260906143033 85 209 1.7 3.5 0.00 0.00 0.00 60 1015.7
20260906142508 85 234 0.9 3.5 0.00 0.00 0.00 60 1015.7
20260906142008 86 192 0.0 3.5 0.00 0.00 0.00 60 1015.7
20260906141514 85 173 0.9 2.6 0.00 0.00 0.00 59 1015.6
20260906141012 84 194 0.9 4.3 0.00 0.00 0.00 62 1015.5
20260906140504 84 259 0.9 4.3 0.00 0.00 0.00 60 1015.5
20260906140002 84 196 0.9 2.6 0.00 0.00 0.00 62 1015.5
20260906135502 83 310 0.0 2.6 0.00 0.00 0.00 62 1015.4
20260906135001 82 209 0.0 2.6 0.00 0.00 0.00 63 1015.3
20260906134507 82 205 0.0 2.6 0.00 0.00 0.00 64 1015.4
20260906134007 81 142 0.9 1.7 0.00 0.00 0.00 65 1015.5
20260906133505 81 161 0.0 3.5 0.00 0.00 0.00 65 1015.6
20260906133011 81 171 1.7 3.5 0.00 0.00 0.00 65 1015.5
20260906132509 80 185 0.0 2.6 0.00 0.00 0.00 66 1015.5
20260906132010 80 200 0.9 1.7 0.00 0.00 0.00 68 1015.5
20260906131520 79 200 0.0 0.0 0.00 0.00 0.00 69 1015.5
20260906131002 78 200 0.0 0.0 0.00 0.00 0.00 69 1015.5
20260906130502 78 200 0.0 0.0 0.00 0.00 0.00 69 1015.4
20260906130002 78 200 0.0 1.7 0.00 0.00 0.00 70 1015.3
20260906125502 77 200 0.0 1.7 0.00 0.00 0.00 71 1015.3
20260906125002 77 200 0.0 1.7 0.00 0.00 0.00 71 1015.3
20260906124506 77 200 0.0 0.0 0.00 0.00 0.00 72 1015.2
20260906124007 77 200 0.0 0.0 0.00 0.00 0.00 72 1015.1
20260906123506 76 200 0.0 0.0 0.00 0.00 0.00 72 1015.0
20260906123019 76 200 0.0 1.7 0.00 0.00 0.00 72 1014.9
20260906122510 76 200 0.0 1.7 0.00 0.00 0.00 72 1014.8
20260906122013 76 200 0.0 1.7 0.00 0.00 0.00 72 1014.7
20260906121506 76 200 0.0 1.7 0.00 0.00 0.00 72 1014.6
20260906121002 76 200 0.0 1.7 0.00 0.00 0.00 72 1014.6
20260906120502 76 200 0.0 1.7 0.00 0.00 0.00 72 1014.5
20260906120004 76 200 0.0 1.7 0.00 0.00 0.00 72 1014.4
20260906115506 76 200 0.0 1.7 0.00 0.00 0.00 72 1014.5
20260906115006 76 200 0.0 1.7 0.00 0.00 0.00 72 1014.4
20260906114520 76 200 0.0 1.7 0.00 0.00 0.00 71 1014.4
20260906114009 76 200 0.0 1.7 0.00 0.00 0.00 71 1014.3
20260906113510 76 200 0.0 1.7 0.00 0.00 0.00 71 1014.3
20260906113018 76 200 0.0 1.7 0.00 0.00 0.00 71 1014.2
20260906112513 76 200 0.0 1.7 0.00 0.00 0.00 71 1014.2
20260906112013 76 200 0.0 1.7 0.00 0.00 0.00 71 1014.2
20260906111504 76 200 0.0 1.7 0.00 0.00 0.00 71 1014.1
20260906111002 76 200 0.0 1.7 0.00 0.00 0.00 71 1014.0
20260906110502 76 200 0.0 1.7 0.00 0.00 0.00 71 1013.9
20260906110007 77 200 0.0 1.7 0.00 0.00 0.00 70 1013.9
20260906105506 76 200 0.0 1.7 0.00 0.00 0.00 70 1013.9
20260906105007 77 200 0.0 1.7 0.00 0.00 0.00 70 1013.9
20260906104514 77 200 0.0 1.7 0.00 0.00 0.00 70 1013.9
20260906104009 76 200 0.0 1.7 0.00 0.00 0.00 70 1013.9
20260906103509 77 200 0.0 1.7 0.00 0.00 0.00 70 1013.9
20260906103021 77 200 0.0 2.6 0.00 0.00 0.00 69 1013.8
20260906102515 77 200 0.0 2.6 0.00 0.00 0.00 69 1013.9
20260906102002 77 200 0.0 1.7 0.00 0.00 0.00 68 1013.9
20260906101504 78 200 0.0 1.7 0.00 0.00 0.00 67 1013.9
20260906101003 78 200 0.0 1.7 0.00 0.00 0.00 67 1013.8
20260906100510 78 200 0.0 1.7 0.00 0.00 0.00 66 1013.8
20260906100019 78 200 0.0 1.7 0.00 0.00 0.00 66 1013.8
20260906095507 78 200 0.0 1.7 0.00 0.00 0.00 65 1013.8
20260906095010 78 200 0.0 1.7 0.00 0.00 0.00 65 1013.8
20260906094518 79 200 0.0 1.7 0.00 0.00 0.00 65 1013.7
20260906094016 79 200 0.0 1.7 0.00 0.00 0.00 65 1013.6
20260906093514 79 200 0.0 1.7 0.00 0.00 0.00 65 1013.7
20260906093027 79 200 0.0 1.7 0.00 0.00 0.00 65 1013.6
20260906092518 79 200 0.0 1.7 0.00 0.00 0.00 65 1013.7
20260906092006 79 200 0.0 1.7 0.00 0.00 0.00 64 1013.7
20260906091507 79 200 0.0 1.7 0.00 0.00 0.00 64 1013.7
20260906091004 79 200 0.0 1.7 0.00 0.00 0.00 64 1013.7
20260906090509 79 200 0.0 0.9 0.00 0.00 0.00 64 1013.7
20260906090012 79 200 0.0 0.9 0.00 0.00 0.00 64 1013.7
20260906085511 79 200 0.0 1.7 0.00 0.00 0.00 63 1013.6
20260906085010 79 200 0.0 1.7 0.00 0.00 0.00 63 1013.6
20260906084520 79 200 0.0 1.7 0.00 0.00 0.00 63 1013.6
20260906084016 79 200 0.0 1.7 0.00 0.00 0.00 63 1013.6
20260906083516 79 200 0.0 0.0 0.00 0.00 0.00 63 1013.5
20260906083028 79 200 0.0 1.7 0.00 0.00 0.00 63 1013.5
20260906082503 80 200 0.0 1.7 0.00 0.00 0.00 63 1013.6
20260906082003 80 200 0.0 1.7 0.00 0.00 0.00 63 1013.6
20260906081513 79 200 0.0 1.7 0.00 0.00 0.00 63 1013.6
20260906081006 80 200 0.0 1.7 0.00 0.00 0.00 63 1013.6
20260906080511 80 200 0.0 1.7 0.00 0.00 0.00 62 1013.7
20260906080019 80 200 0.0 1.7 0.00 0.00 0.00 62 1013.6
20260906075512 80 200 0.0 1.7 0.00 0.00 0.00 62 1013.5
20260906075014 80 200 0.0 1.7 0.00 0.00 0.00 62 1013.6
20260906074524 80 200 0.0 1.7 0.00 0.00 0.00 61 1013.6
20260906074016 80 200 0.0 1.7 0.00 0.00 0.00 61 1013.5
20260906073517 80 200 0.0 1.7 0.00 0.00 0.00 61 1013.5
20260906073006 80 200 0.0 1.7 0.00 0.00 0.00 61 1013.5
20260906072504 80 200 0.0 1.7 0.00 0.00 0.00 60 1013.5
20260906072006 81 200 0.0 1.7 0.00 0.00 0.00 60 1013.4
20260906071515 81 200 0.0 1.7 0.00 0.00 0.00 60 1013.5
20260906071009 81 200 0.0 1.7 0.00 0.00 0.00 59 1013.5
20260906070509 81 200 0.0 1.7 0.00 0.00 0.00 59 1013.5
20260906070018 81 200 0.0 1.7 0.00 0.00 0.00 59 1013.5
20260906065514 81 200 0.0 1.7 0.00 0.00 0.00 59 1013.4
20260906065004 81 200 0.0 1.7 0.00 0.00 0.00 59 1013.4
20260906064505 82 200 0.0 1.7 0.00 0.00 0.00 58 1013.4
20260906064004 82 200 0.0 1.7 0.00 0.00 0.00 57 1013.4
20260906063503 82 200 0.0 1.7 0.00 0.00 0.00 58 1013.4
20260906063010 82 200 0.0 1.7 0.00 0.00 0.00 57 1013.5
20260906062509 82 200 0.0 0.9 0.00 0.00 0.00 56 1013.4
20260906062007 83 200 0.0 1.7 0.00 0.00 0.00 56 1013.4
20260906061514 83 200 0.0 1.7 0.00 0.00 0.00 56 1013.4
20260906061015 83 200 0.0 0.0 0.00 0.00 0.00 56 1013.5
20260906060513 83 200 0.0 0.9 0.00 0.00 0.00 56 1013.5
20260906060024 83 200 0.0 1.7 0.00 0.00 0.00 55 1013.5
20260906055504 83 200 0.0 1.7 0.00 0.00 0.00 55 1013.4
20260906055004 83 200 0.0 1.7 0.00 0.00 0.00 55 1013.4
20260906054503 84 200 0.0 1.7 0.00 0.00 0.00 55 1013.3
20260906054005 84 200 0.0 1.7 0.00 0.00 0.00 54 1013.2
20260906053505 84 200 0.0 1.7 0.00 0.00 0.00 54 1013.1
20260906053008 84 200 0.0 1.7 0.00 0.00 0.00 54 1013.0
20260906052507 84 200 0.0 1.7 0.00 0.00 0.00 54 1013.1
20260906052011 84 200 0.0 1.7 0.00 0.00 0.00 54 1013.1
20260906051518 84 200 0.0 1.7 0.00 0.00 0.00 54 1013.1
20260906051016 84 200 0.0 1.7 0.00 0.00 0.00 54 1013.3
20260906050515 84 200 0.0 1.7 0.00 0.00 0.00 54 1013.2
20260906050004 84 200 0.0 1.7 0.00 0.00 0.00 53 1013.2
20260906045503 85 200 0.9 1.7 0.00 0.00 0.00 53 1013.2
20260906045003 85 200 0.0 1.7 0.00 0.00 0.00 53 1013.1
20260906044507 85 200 0.0 1.7 0.00 0.00 0.00 53 1013.1
20260906044010 85 200 0.0 1.7 0.00 0.00 0.00 52 1013.1
20260906043508 85 200 0.0 1.7 0.00 0.00 0.00 52 1013.1
20260906043026 85 200 0.0 1.7 0.00 0.00 0.00 52 1013.1
20260906042510 85 200 0.0 1.7 0.00 0.00 0.00 51 1013.1
20260906042014 86 200 0.0 1.7 0.00 0.00 0.00 51 1013.0
20260906041523 86 200 0.0 1.7 0.00 0.00 0.00 51 1013.1
20260906041014 86 200 0.0 1.7 0.00 0.00 0.00 50 1013.1
20260906040514 86 200 0.0 1.7 0.00 0.00 0.00 50 1013.2
20260906040003 87 265 0.0 2.6 0.00 0.00 0.00 50 1013.2
20260906035502 87 182 0.0 2.6 0.00 0.00 0.00 49 1013.2
20260906035006 87 254 0.0 2.6 0.00 0.00 0.00 49 1013.2
20260906034511 87 172 0.0 3.5 0.00 0.00 0.00 48 1013.2
20260906034010 88 167 0.9 3.5 0.00 0.00 0.00 48 1013.2
20260906033509 88 165 0.0 1.7 0.00 0.00 0.00 48 1013.2
20260906033018 88 179 0.0 1.7 0.00 0.00 0.00 47 1013.2
20260906032513 88 157 0.9 4.3 0.00 0.00 0.00 47 1013.2
20260906032013 88 165 0.9 4.3 0.00 0.00 0.00 47 1013.2
20260906031529 88 182 0.9 1.7 0.00 0.00 0.00 47 1013.2
20260906031014 88 175 0.9 1.7 0.00 0.00 0.00 47 1013.2
20260906030504 88 175 0.9 1.7 0.00 0.00 0.00 48 1013.2
20260906030006 88 140 0.0 1.7 0.00 0.00 0.00 48 1013.3
20260906025512 88 140 0.9 2.6 0.00 0.00 0.00 48 1013.2
20260906025006 88 167 0.0 2.6 0.00 0.00 0.00 48 1013.1
20260906024511 89 148 0.9 2.6 0.00 0.00 0.00 47 1013.1
20260906024015 89 157 0.9 1.7 0.00 0.00 0.00 47 1013.2
20260906023512 89 180 0.0 1.7 0.00 0.00 0.00 47 1013.2
20260906023027 89 184 0.0 1.7 0.00 0.00 0.00 47 1013.2
20260906022512 89 180 0.0 1.7 0.00 0.00 0.00 46 1013.0
20260906022016 89 132 0.0 1.7 0.00 0.00 0.00 46 1012.9
20260906021538 90 132 0.0 1.7 0.00 0.00 0.00 45 1012.9
20260906021002 90 132 0.0 1.7 0.00 0.00 0.00 45 1012.8
20260906020507 90 171 0.9 1.7 0.00 0.00 0.00 45 1012.7
20260906020009 90 163 0.0 1.7 0.00 0.00 0.00 45 1012.5
20260906015508 90 148 0.0 1.7 0.00 0.00 0.00 45 1012.5
20260906015007 90 152 0.0 1.7 0.00 0.00 0.00 45 1012.5
20260906014516 91 152 0.0 1.7 0.00 0.00 0.00 44 1012.4
20260906014013 91 152 0.0 1.7 0.00 0.00 0.00 44 1012.4
20260906013510 91 152 0.0 1.7 0.00 0.00 0.00 44 1012.3
20260906013024 91 164 0.0 1.7 0.00 0.00 0.00 43 1012.1
20260906012513 92 146 0.0 1.7 0.00 0.00 0.00 42 1012.1
20260906012016 92 146 0.0 1.7 0.00 0.00 0.00 42 1012.1
20260906011506 92 127 0.9 1.7 0.00 0.00 0.00 42 1012.1
20260906011007 93 127 0.0 1.7 0.00 0.00 0.00 41 1012.1
20260906010506 93 127 0.0 1.7 0.00 0.00 0.00 41 1012.0
20260906010012 93 128 0.0 1.7 0.00 0.00 0.00 41 1011.9
20260906005507 94 128 0.9 1.7 0.00 0.00 0.00 40 1011.8
20260906005012 94 155 0.0 2.6 0.00 0.00 0.00 40 1011.8
20260906004522 94 166 1.7 3.5 0.00 0.00 0.00 39 1011.8
20260906004012 95 165 0.9 3.5 0.00 0.00 0.00 39 1011.9
20260906003512 95 143 0.0 2.6 0.00 0.00 0.00 39 1011.9
20260906003030 95 165 0.9 4.3 0.00 0.00 0.00 38 1011.8
20260906002515 96 150 0.9 4.3 0.00 0.00 0.00 37 1011.9
20260906002017 96 165 0.9 4.3 0.00 0.00 0.00 37 1011.8
20260906001506 97 167 0.9 3.5 0.00 0.00 0.00 37 1011.9
20260906001008 97 206 0.0 3.5 0.00 0.00 0.00 36 1011.8
20260906000508 97 23 0.9 4.3 0.00 0.00 0.00 36 1011.7
20260906000017 98 219 0.9 5.2 0.00 0.00 0.00 36 1011.6
20260905235511 98 174 1.7 6.1 0.00 0.00 0.00 35 1011.5
20260905235012 98 98 2.6 6.1 0.00 0.00 0.00 35 1011.4
20260905234523 99 284 1.7 5.2 0.00 0.00 0.00 35 1011.4
20260905234019 99 179 1.7 6.1 0.00 0.00 0.00 35 1011.4
20260905233515 99 203 1.7 7.8 0.00 0.00 0.00 35 1011.4
20260905233032 99 214 2.6 7.8 0.00 0.00 0.00 35 1011.4
20260905232520 100 116 1.7 7.0 0.00 0.00 0.00 35 1011.3
20260905232008 99 165 0.9 6.1 0.00 0.00 0.00 35 1011.2
20260905231514 100 99 1.7 6.1 0.00 0.00 0.00 35 1011.3
20260905231009 100 100 0.9 5.2 0.00 0.00 0.00 35 1011.3
20260905230511 99 167 1.7 7.0 0.00 0.00 0.00 35 1011.3
20260905230021 100 158 2.6 7.0 0.00 0.00 0.00 35 1011.3
20260905225516 100 134 1.7 7.0 0.00 0.00 0.00 35 1011.3
20260905225012 100 184 1.7 7.0 0.00 0.00 0.00 35 1011.2
20260905224505 100 93 3.5 7.0 0.00 0.00 0.00 34 1011.3
20260905224003 100 90 2.6 8.7 0.00 0.00 0.00 34 1011.3
20260905223505 100 157 1.7 9.6 0.00 0.00 0.00 35 1011.2
20260905223011 100 160 3.5 9.6 0.00 0.00 0.00 35 1011.2
20260905222508 100 145 2.6 7.0 0.00 0.00 0.00 35 1011.3
20260905222010 101 221 2.6 7.0 0.00 0.00 0.00 34 1011.3
20260905221517 101 237 1.7 5.2 0.00 0.00 0.00 35 1011.3
20260905221011 100 159 1.7 7.8 0.00 0.00 0.00 35 1011.3
20260905220512 100 225 2.6 8.7 0.00 0.00 0.00 35 1011.4
20260905220024 101 204 3.5 8.7 0.00 0.00 0.00 34 1011.4
20260905215516 101 220 1.7 6.1 0.00 0.00 0.00 34 1011.5
20260905215016 101 182 1.7 6.1 0.00 0.00 0.00 34 1011.5
20260905214511 101 83 0.9 7.0 0.00 0.00 0.00 36 1011.5
20260905214007 101 141 2.6 7.0 0.00 0.00 0.00 34 1011.7
20260905213506 100 156 2.6 7.8 0.00 0.00 0.00 35 1011.7
20260905213011 100 232 3.5 7.8 0.00 0.00 0.00 35 1011.6
20260905212508 100 229 1.7 8.7 0.00 0.00 0.00 34 1011.8
20260905212008 101 184 2.6 8.7 0.00 0.00 0.00 35 1011.9
20260905211517 101 168 2.6 7.8 0.00 0.00 0.00 34 1011.9
20260905211012 101 140 2.6 7.8 0.00 0.00 0.00 34 1012.0
20260905210514 101 190 2.6 7.8 0.00 0.00 0.00 35 1012.0
20260905210038 101 224 4.3 7.8 0.00 0.00 0.00 34 1012.2
20260905205516 102 175 1.7 7.8 0.00 0.00 0.00 34 1012.3
20260905205006 101 223 0.9 7.0 0.00 0.00 0.00 37 1012.4
20260905204505 100 79 2.6 7.0 0.00 0.00 0.00 37 1012.4